| time (UTC) | temp C | wind direction | speed KPH | gust KPH | rain 1hr cm | rain 24hr cm | rain mn cm | humidity % | barometer mb |
| 20260905034615 | 27 | 0 | 0.0 | 1.6 | 0.00 | 0.15 | 0.15 | 81 | 1012.7 |
| 20260905033105 | 27 | 0 | 0.0 | 1.6 | 0.00 | 0.15 | 0.15 | 80 | 1012.6 |
| 20260905031607 | 27 | 0 | 0.0 | 0.0 | 0.00 | 0.15 | 0.15 | 80 | 1012.6 |
| 20260905030106 | 27 | 0 | 0.0 | 0.0 | 0.00 | 0.15 | 0.15 | 79 | 1012.6 |
| 20260905024605 | 27 | 0 | 0.0 | 0.0 | 0.00 | 0.15 | 0.15 | 77 | 1012.5 |
| 20260905023110 | 28 | 0 | 0.0 | 0.0 | 0.00 | 0.15 | 0.15 | 76 | 1012.3 |
| 20260905021600 | 28 | 0 | 0.0 | 0.0 | 0.00 | 0.15 | 0.15 | 75 | 1012.1 |
| 20260905020105 | 28 | 0 | 0.0 | 0.0 | 0.00 | 0.15 | 0.15 | 74 | 1012.0 |
| 20260905014607 | 29 | 0 | 0.0 | 0.0 | 0.00 | 0.15 | 0.15 | 73 | 1011.8 |
| 20260905013103 | 29 | 0 | 0.0 | 0.0 | 0.00 | 0.15 | 0.15 | 72 | 1011.8 |
| 20260905011602 | 30 | 0 | 0.0 | 0.0 | 0.00 | 0.15 | 0.15 | 70 | 1011.6 |
| 20260905010058 | 30 | 0 | 0.0 | 1.6 | 0.00 | 0.15 | 0.15 | 69 | 1011.5 |
| 20260905004637 | 30 | 0 | 0.0 | 1.6 | 0.00 | 0.15 | 0.15 | 68 | 1011.1 |
| 20260905003102 | 31 | 0 | 0.0 | 0.0 | 0.00 | 0.15 | 0.15 | 66 | 1011.1 |
| 20260905001605 | 31 | 0 | 0.0 | 3.2 | 0.00 | 0.15 | 0.15 | 64 | 1011.1 |
| 20260904234607 | 31 | 0 | 0.0 | 3.2 | 0.00 | 0.15 | 0.15 | 62 | 1011.2 |
| 20260904233100 | 31 | 0 | 0.0 | 1.6 | 0.00 | 0.15 | 0.15 | 60 | 1011.1 |
| 20260904231604 | 32 | 0 | 0.0 | 3.2 | 0.00 | 0.15 | 0.15 | 60 | 1011.0 |
| 20260904230128 | 32 | 0 | 0.0 | 3.2 | 0.00 | 0.15 | 0.15 | 59 | 1011.0 |
| 20260904224603 | 32 | 0 | 0.0 | 0.0 | 0.00 | 0.15 | 0.15 | 57 | 1011.1 |
| 20260904223108 | 32 | 0 | 0.0 | 4.8 | 0.00 | 0.15 | 0.15 | 59 | 1011.1 |
| 20260904221601 | 31 | 91 | 0.0 | 4.8 | 0.00 | 0.15 | 0.15 | 59 | 1011.2 |
| 20260904220101 | 31 | 0 | 0.0 | 3.2 | 0.00 | 0.15 | 0.15 | 64 | 1011.3 |
| 20260904214606 | 31 | 0 | 0.0 | 3.2 | 0.00 | 0.15 | 0.15 | 65 | 1011.6 |
| 20260904213105 | 31 | 103 | 0.0 | 3.2 | 0.00 | 0.15 | 0.15 | 67 | 1011.7 |
| 20260904211602 | 31 | 0 | 0.0 | 6.4 | 0.00 | 0.15 | 0.15 | 69 | 1012.1 |
| 20260904210104 | 32 | 0 | 0.0 | 4.8 | 0.00 | 0.15 | 0.15 | 69 | 1011.9 |
| 20260904204602 | 31 | 0 | 0.0 | 4.8 | 0.00 | 0.15 | 0.15 | 73 | 1012.3 |
| 20260904203109 | 30 | 134 | 0.0 | 6.4 | 0.00 | 0.15 | 0.15 | 76 | 1012.7 |
| 20260904201607 | 29 | 0 | 0.0 | 3.2 | 0.00 | 0.15 | 0.15 | 77 | 1012.8 |
| 20260904200105 | 29 | 128 | 0.0 | 3.2 | 0.00 | 0.15 | 0.15 | 79 | 1012.8 |
| 20260904194610 | 29 | 0 | 0.0 | 3.2 | 0.00 | 0.15 | 0.15 | 79 | 1012.7 |
| 20260904193105 | 29 | 0 | 0.0 | 4.8 | 0.00 | 0.15 | 0.15 | 79 | 1012.8 |
| 20260904191603 | 30 | 122 | 0.0 | 3.2 | 0.00 | 0.15 | 0.15 | 80 | 1013.0 |
| 20260904190105 | 30 | 0 | 0.0 | 3.2 | 0.00 | 0.15 | 0.15 | 81 | 1013.2 |
| 20260904184610 | 30 | 0 | 0.0 | 4.8 | 0.00 | 0.15 | 0.15 | 80 | 1013.4 |
| 20260904183115 | 30 | 0 | 0.0 | 3.2 | 0.00 | 0.15 | 0.15 | 78 | 1013.6 |
| 20260904181607 | 30 | 0 | 0.0 | 4.8 | 0.00 | 0.15 | 0.15 | 77 | 1013.8 |
| 20260904180115 | 30 | 0 | 0.0 | 3.2 | 0.00 | 0.15 | 0.15 | 75 | 1013.8 |
| 20260904174608 | 30 | 0 | 0.0 | 0.0 | 0.00 | 0.15 | 0.15 | 74 | 1013.8 |
| 20260904173119 | 31 | 0 | 0.0 | 0.0 | 0.00 | 0.15 | 0.15 | 74 | 1013.9 |
| 20260904171608 | 31 | 0 | 0.0 | 1.6 | 0.00 | 0.15 | 0.15 | 73 | 1013.9 |
| 20260904170109 | 31 | 0 | 0.0 | 1.6 | 0.00 | 0.15 | 0.15 | 71 | 1014.3 |
| 20260904164607 | 31 | 0 | 0.0 | 3.2 | 0.00 | 0.15 | 0.15 | 69 | 1014.3 |
| 20260904163109 | 31 | 0 | 0.0 | 3.2 | 0.00 | 0.15 | 0.15 | 70 | 1013.8 |
| 20260904161604 | 31 | 0 | 0.0 | 3.2 | 0.00 | 0.15 | 0.15 | 72 | 1013.9 |
| 20260904160109 | 28 | 0 | 0.0 | 1.6 | 0.00 | 0.15 | 0.15 | 82 | 1013.7 |
| 20260904154605 | 28 | 165 | 0.0 | 3.2 | 0.00 | 0.15 | 0.15 | 89 | 1014.0 |
| 20260904153109 | 27 | 0 | 0.0 | 3.2 | 0.00 | 0.15 | 0.15 | 93 | 1013.9 |
| 20260904151601 | 27 | 0 | 0.0 | 3.2 | 0.00 | 0.15 | 0.15 | 94 | 1013.7 |
| 20260904150111 | 27 | 0 | 0.0 | 0.0 | 0.00 | 0.15 | 0.15 | 94 | 1013.8 |
| 20260904144606 | 27 | 0 | 0.0 | 1.6 | 0.00 | 0.15 | 0.15 | 95 | 1013.7 |
| 20260904143105 | 27 | 0 | 0.0 | 4.8 | 0.00 | 0.15 | 0.15 | 95 | 1013.6 |
| 20260904141601 | 26 | 0 | 0.0 | 4.8 | 0.00 | 0.15 | 0.15 | 95 | 1013.6 |
| 20260904140110 | 26 | 0 | 0.0 | 3.2 | 0.00 | 0.15 | 0.15 | 95 | 1013.6 |
| 20260904134607 | 26 | 0 | 0.0 | 0.0 | 0.00 | 0.15 | 0.15 | 95 | 1013.4 |
| 20260904133105 | 26 | 0 | 0.0 | 0.0 | 0.00 | 0.15 | 0.15 | 95 | 1013.1 |
| 20260904131600 | 26 | 0 | 0.0 | 0.0 | 0.00 | 0.15 | 0.15 | 95 | 1013.1 |
| 20260904130108 | 26 | 0 | 0.0 | 1.6 | 0.00 | 0.15 | 0.15 | 94 | 1013.0 |
| 20260904124608 | 25 | 0 | 0.0 | 0.0 | 0.00 | 0.15 | 0.15 | 94 | 1012.9 |
| 20260904123106 | 25 | 0 | 0.0 | 1.6 | 0.00 | 0.15 | 0.15 | 94 | 1012.7 |
| 20260904121602 | 25 | 0 | 0.0 | 0.0 | 0.00 | 0.15 | 0.15 | 94 | 1012.5 |
| 20260904120113 | 25 | 0 | 0.0 | 1.6 | 0.00 | 0.15 | 0.15 | 94 | 1012.4 |
| 20260904114559 | 25 | 0 | 0.0 | 1.6 | 0.00 | 0.15 | 0.15 | 94 | 1012.3 |
| 20260904113101 | 26 | 0 | 0.0 | 1.6 | 0.00 | 0.15 | 0.15 | 94 | 1012.1 |
| 20260904111604 | 26 | 0 | 0.0 | 0.0 | 0.00 | 0.15 | 0.15 | 94 | 1012.3 |
| 20260904110108 | 26 | 0 | 0.0 | 0.0 | 0.00 | 0.15 | 0.15 | 94 | 1012.3 |
| 20260904104600 | 26 | 0 | 0.0 | 1.6 | 0.00 | 0.15 | 0.15 | 94 | 1012.1 |
| 20260904103105 | 26 | 0 | 0.0 | 0.0 | 0.00 | 0.15 | 0.15 | 94 | 1012.0 |
| 20260904101610 | 26 | 0 | 0.0 | 1.6 | 0.00 | 0.15 | 0.15 | 94 | 1012.0 |
| 20260904100101 | 26 | 0 | 0.0 | 0.0 | 0.00 | 0.15 | 0.15 | 93 | 1011.8 |
| 20260904094607 | 26 | 0 | 0.0 | 0.0 | 0.03 | 0.15 | 0.15 | 93 | 1011.9 |
| 20260904093110 | 26 | 0 | 0.0 | 0.0 | 0.03 | 0.15 | 0.15 | 93 | 1011.9 |
| 20260904091602 | 26 | 0 | 0.0 | 0.0 | 0.03 | 0.15 | 0.15 | 93 | 1012.0 |
| 20260904090104 | 26 | 0 | 0.0 | 0.0 | 0.03 | 0.15 | 0.15 | 93 | 1011.9 |
| 20260904084605 | 26 | 0 | 0.0 | 0.0 | 0.00 | 0.13 | 0.13 | 93 | 1011.9 |
| 20260904083105 | 26 | 0 | 0.0 | 0.0 | 0.00 | 0.13 | 0.13 | 93 | 1011.9 |
| 20260904081609 | 26 | 0 | 0.0 | 1.6 | 0.00 | 0.13 | 0.13 | 93 | 1011.8 |
| 20260904080113 | 26 | 0 | 0.0 | 1.6 | 0.00 | 0.13 | 0.13 | 92 | 1012.0 |
| 20260904074606 | 26 | 0 | 0.0 | 1.6 | 0.00 | 0.13 | 0.13 | 92 | 1012.0 |
| 20260904073107 | 26 | 0 | 0.0 | 0.0 | 0.03 | 0.13 | 0.13 | 92 | 1011.9 |
| 20260904071606 | 26 | 0 | 0.0 | 0.0 | 0.05 | 0.13 | 0.13 | 92 | 1012.2 |
| 20260904070110 | 26 | 0 | 0.0 | 0.0 | 0.08 | 0.13 | 0.13 | 92 | 1012.3 |
| 20260904064604 | 26 | 0 | 0.0 | 0.0 | 0.08 | 0.13 | 0.13 | 91 | 1012.3 |
| 20260904063105 | 26 | 0 | 0.0 | 1.6 | 0.08 | 0.10 | 0.10 | 91 | 1012.1 |
| 20260904061604 | 26 | 0 | 0.0 | 1.6 | 0.05 | 0.08 | 0.08 | 91 | 1012.1 |
| 20260904060104 | 26 | 0 | 0.0 | 0.0 | 0.05 | 0.05 | 0.05 | 90 | 1012.5 |
| 20260904054605 | 26 | 0 | 0.0 | 1.6 | 0.05 | 0.05 | 0.05 | 90 | 1012.4 |
| 20260904053106 | 26 | 0 | 0.0 | 0.0 | 0.03 | 0.03 | 0.03 | 89 | 1012.2 |
| 20260904051623 | 26 | 0 | 0.0 | 1.6 | 0.03 | 0.03 | 0.03 | 89 | 1012.0 |
| 20260904050110 | 26 | 0 | 0.0 | 0.0 | 0.00 | 0.00 | 0.00 | 88 | 1011.8 |
| 20260904044605 | 26 | 0 | 0.0 | 1.6 | 0.00 | 0.00 | 0.00 | 88 | 1012.0 |
| 20260904043110 | 26 | 0 | 0.0 | 1.6 | 0.00 | 0.00 | 0.00 | 88 | 1012.1 |
| 20260904041604 | 26 | 0 | 0.0 | 3.2 | 0.00 | 0.00 | 0.00 | 87 | 1012.3 |
| 20260904040107 | 26 | 0 | 0.0 | 0.0 | 0.00 | 0.00 | 0.00 | 87 | 1012.1 |